N960 KJAX-KISM

Flight info

Callsign N960
Flight time N/A
Altitude 17000
Route EXBOX2 EXBOX PRMUS FORYU SNFLD3
Aircraft C25C/M-BGS/L

Departure

Time 2026-05-03 23:37
Airport Jacksonville International Airport (KJAX)

Arrival

Time N/A
Airport Kissimmee Gateway Airport (KISM)
Time Latitude Longitude Altitude Speed Heading
2026-05-03 23:20 30.49799 -81.67823 31 ft 0 kts 282°
2026-05-03 23:29 30.49829 -81.67855 30 ft 14 kts 287°
2026-05-03 23:30 30.49952 -81.67944 30 ft 26 kts 339°
2026-05-03 23:30 30.50039 -81.68056 32 ft 19 kts 253°
2026-05-03 23:30 30.49997 -81.68197 32 ft 18 kts 250°
2026-05-03 23:30 30.49953 -81.68339 29 ft 19 kts 250°
2026-05-03 23:31 30.49911 -81.68479 30 ft 18 kts 251°
2026-05-03 23:31 30.49871 -81.68610 31 ft 17 kts 250°
2026-05-03 23:31 30.49831 -81.68736 31 ft 16 kts 250°
2026-05-03 23:31 30.49795 -81.68852 33 ft 14 kts 250°
2026-05-03 23:32 30.49764 -81.68955 34 ft 13 kts 252°
2026-05-03 23:32 30.49734 -81.69058 33 ft 14 kts 251°
2026-05-03 23:32 30.49702 -81.69164 34 ft 14 kts 250°
2026-05-03 23:32 30.49669 -81.69271 36 ft 14 kts 251°
2026-05-03 23:33 30.49633 -81.69392 35 ft 18 kts 250°
2026-05-03 23:33 30.49586 -81.69542 33 ft 21 kts 250°
2026-05-03 23:33 30.49529 -81.69718 30 ft 25 kts 249°
2026-05-03 23:33 30.49452 -81.69912 27 ft 27 kts 206°
2026-05-03 23:34 30.49316 -81.69971 28 ft 10 kts 219°
2026-05-03 23:34 30.49291 -81.69995 27 ft 0 kts 219°
2026-05-03 23:34 30.49260 -81.70025 27 ft 19 kts 219°
2026-05-03 23:34 30.49186 -81.70037 29 ft 7 kts 131°
2026-05-03 23:35 30.49184 -81.70034 29 ft 0 kts 131°
2026-05-03 23:36 30.49181 -81.70030 29 ft 8 kts 131°
2026-05-03 23:36 30.48969 -81.69744 31 ft 85 kts 130°
2026-05-03 23:36 30.48438 -81.69041 58 ft 139 kts 131°
2026-05-03 23:37 30.47751 -81.68114 321 ft 161 kts 127°
2026-05-03 23:37 30.46950 -81.67121 718 ft 180 kts 133°
2026-05-03 23:37 30.46017 -81.66036 1052 ft 198 kts 132°
2026-05-03 23:37 30.45020 -81.64855 1415 ft 206 kts 133°
2026-05-03 23:38 30.44005 -81.63676 1820 ft 209 kts 133°
2026-05-03 23:38 30.42884 -81.62640 2417 ft 204 kts 142°
2026-05-03 23:38 30.41717 -81.61697 2912 ft 209 kts 143°
2026-05-03 23:38 30.40413 -81.60626 3380 ft 241 kts 143°
2026-05-03 23:39 30.39044 -81.59528 4003 ft 247 kts 145°
2026-05-03 23:39 30.37582 -81.58370 4395 ft 257 kts 143°
2026-05-03 23:39 30.36160 -81.57120 5029 ft 255 kts 142°
2026-05-03 23:39 30.34759 -81.55834 5449 ft 262 kts 141°
2026-05-03 23:40 30.33287 -81.54548 5907 ft 265 kts 142°
2026-05-03 23:40 30.31822 -81.53281 6607 ft 261 kts 146°
2026-05-03 23:40 30.30331 -81.52106 7244 ft 259 kts 146°
2026-05-03 23:40 30.28851 -81.50880 7702 ft 265 kts 147°
2026-05-03 23:41 30.27106 -81.50117 7911 ft 275 kts 175°
2026-05-03 23:41 30.25226 -81.50266 8553 ft 264 kts 193°
2026-05-03 23:41 30.23404 -81.50636 8982 ft 270 kts 193°
2026-05-03 23:41 30.21538 -81.51018 9387 ft 274 kts 193°
2026-05-03 23:42 30.19521 -81.51440 9485 ft 308 kts 193°
2026-05-03 23:42 30.17352 -81.51830 10096 ft 321 kts 191°
2026-05-03 23:42 30.15085 -81.52152 10681 ft 331 kts 190°
2026-05-03 23:42 30.12781 -81.52424 11423 ft 335 kts 190°
2026-05-03 23:43 30.10428 -81.52767 11960 ft 342 kts 189°
2026-05-03 23:43 30.08088 -81.52574 12921 ft 347 kts 171°
2026-05-03 23:43 30.05898 -81.51339 13793 ft 360 kts 148°
2026-05-03 23:43 30.04137 -81.49198 14398 ft 372 kts 134°
2026-05-03 23:44 30.02498 -81.46860 14912 ft 380 kts 135°
2026-05-03 23:44 30.00747 -81.44592 15727 ft 372 kts 139°
2026-05-03 23:44 29.98947 -81.42356 16309 ft 390 kts 139°
2026-05-03 23:44 29.97040 -81.40015 16550 ft 413 kts 139°
2026-05-03 23:45 29.95069 -81.37548 16765 ft 423 kts 137°
2026-05-03 23:45 29.93124 -81.35072 17045 ft 412 kts 137°
2026-05-03 23:45 29.91198 -81.32604 16783 ft 412 kts 137°
2026-05-03 23:45 29.89318 -81.30165 16906 ft 402 kts 137°
2026-05-03 23:46 29.87476 -81.27801 17018 ft 389 kts 142°
2026-05-03 23:46 29.85333 -81.26015 17016 ft 379 kts 150°
2026-05-03 23:46 29.83334 -81.24024 17014 ft 382 kts 140°
2026-05-03 23:46 29.81865 -81.21362 16432 ft 406 kts 123°
2026-05-03 23:47 29.80540 -81.18544 16673 ft 393 kts 126°
2026-05-03 23:47 29.78780 -81.16338 16739 ft 368 kts 154°
2026-05-03 23:47 29.76465 -81.15408 16751 ft 345 kts 179°
2026-05-03 23:47 29.74124 -81.15178 17010 ft 333 kts 183°
2026-05-03 23:48 29.71820 -81.15005 17138 ft 330 kts 183°
2026-05-03 23:48 29.69554 -81.15081 17067 ft 323 kts 195°
2026-05-03 23:48 29.67345 -81.15523 17067 ft 320 kts 196°
2026-05-03 23:48 29.65245 -81.15852 17093 ft 285 kts 193°
2026-05-03 23:49 29.63405 -81.15930 17104 ft 245 kts 190°
2026-05-03 23:49 29.61835 -81.15974 17085 ft 213 kts 193°
2026-05-03 23:49 29.60447 -81.16061 17042 ft 187 kts 198°
2026-05-03 23:49 29.59494 -81.16694 16986 ft 147 kts 245°
2026-05-03 23:50 29.59407 -81.17821 16614 ft 151 kts 270°
2026-05-03 23:50 29.59495 -81.18662 16174 ft 162 kts 272°
2026-05-03 23:50 29.59713 -81.20441 15349 ft 176 kts 273°
2026-05-03 23:50 29.59862 -81.21855 14752 ft 180 kts 269°
2026-05-03 23:51 29.59810 -81.23295 14166 ft 182 kts 264°
2026-05-03 23:51 29.59698 -81.24751 13546 ft 184 kts 263°
2026-05-03 23:51 29.59568 -81.26224 12893 ft 186 kts 263°
2026-05-03 23:51 29.59424 -81.27708 12256 ft 188 kts 263°
2026-05-03 23:52 29.59270 -81.29211 11626 ft 191 kts 263°
2026-05-03 23:52 29.59100 -81.30733 11009 ft 193 kts 263°
2026-05-03 23:52 29.58500 -81.32107 10376 ft 204 kts 225°
2026-05-03 23:52 29.57126 -81.32645 9735 ft 221 kts 187°
2026-05-03 23:53 29.55590 -81.32690 9083 ft 222 kts 185°
2026-05-03 23:53 29.54048 -81.32665 8445 ft 222 kts 183°
2026-05-03 23:53 29.52506 -81.32634 7809 ft 221 kts 182°
2026-05-03 23:53 29.50970 -81.32623 7195 ft 220 kts 182°
2026-05-03 23:54 29.49438 -81.32624 6588 ft 219 kts 182°
2026-05-03 23:54 29.47916 -81.32634 5940 ft 218 kts 182°
2026-05-03 23:54 29.46406 -81.32662 5271 ft 217 kts 182°
2026-05-03 23:54 29.44890 -81.32703 4533 ft 218 kts 179°
2026-05-03 23:55 29.43431 -81.32326 3770 ft 217 kts 153°
2026-05-03 23:55 29.42310 -81.31206 3022 ft 212 kts 121°
2026-05-03 23:55 29.41852 -81.29672 2434 ft 200 kts 93°
2026-05-03 23:55 29.41950 -81.28138 2063 ft 185 kts 78°
2026-05-03 23:56 29.42515 -81.26851 1555 ft 182 kts 54°
2026-05-03 23:56 29.43289 -81.25692 1025 ft 183 kts 53°
2026-05-03 23:56 29.44004 -81.24548 675 ft 174 kts 56°
2026-05-03 23:56 29.44568 -81.23567 545 ft 127 kts 53°
2026-05-03 23:57 29.45051 -81.22838 302 ft 109 kts 53°
2026-05-03 23:57 29.45489 -81.22128 155 ft 108 kts 53°
2026-05-03 23:57 29.45954 -81.21403 72 ft 119 kts 53°
2026-05-03 23:57 29.46383 -81.20732 31 ft 77 kts 54°
2026-05-03 23:58 29.46636 -81.20323 31 ft 56 kts 55°
2026-05-03 23:58 29.46834 -81.20008 31 ft 25 kts 52°
2026-05-03 23:58 29.46961 -81.20025 30 ft 20 kts 314°
2026-05-03 23:58 29.47022 -81.20155 31 ft 18 kts 286°
2026-05-03 23:59 29.47060 -81.20301 31 ft 20 kts 287°
2026-05-03 23:59 29.47100 -81.20464 30 ft 22 kts 286°
2026-05-03 23:59 29.47142 -81.20634 32 ft 22 kts 284°
2026-05-03 23:59 29.47181 -81.20747 32 ft 5 kts 32°
2026-05-04 00:00 29.47182 -81.20735 32 ft 0 kts 101°